map of LOS home
Great Circle Mapper logo
LOS - Airport
Location
City:  Lagos, Nigeria
Name:Murtala Muhammed International Airport
ICAO / IATA:DNMM / LOS

Details
Type:Airport (Aerodrome, Airfield)
Use:Public/Civil, Military, International (customs port of entry)
Latitude:634'39"N (6.577369)
Longitude:319'16"E (3.321156)
Datum:WGS 1984
Elevation:135 ft (41 m)
Runways:2
Longest:12794 × 197 ft (3900 × 60 m), paved

Time
Time Zone:UTC+1
Local Time:

Weather
METAR:DNMM 010900Z 23004KT 180V300 7000 SCT008 FEW018CB 24/24 Q1017 TEMPO 5000 -RA
TAF:DNMM 312150Z 0100/0206 VRB02KT 8000 FEW009 PROB30
TEMPO 0105/0107 5000 BR/-RA BKN008 FEW018CB
BECMG 0108/0110 24012KT 9999 SCT012 PROB30
TEMPO 0111/0114 FEW020CB

Related Locations
Nearby:
Farthest:FUN: 12133 mi / 19527 km
Funafuti Atoll [Intl], TV

Find:

   beyond  
but within

Other Information
Maps:
NOTAMs:
Links:
Sources:

  
flag of Nigeria   

Sectional Chart

Flight Planning
at skyvector.com

Satellite Image

Google Maps Satellite View

 

Copyright © 2004-2014 Karl L. Swartz. All rights reserved.
The Great Circle Mapper name and logo are trademarks of the Great Circle Mapper.
All other trademarks mentioned herein belong to their respective owners.
Please see credits for attibutions and further copyright information.

  Follow gcmap on Facebook Follow gcmap on Twitter

hCard Microformat

Geo Microformat